Regional Weather Roundup
Issued by NWS Newport/Morehead, NC

Current Version | Previous Version | Graphics & Text | Print | Product List | Glossary Off
Versions: 1 2 3 4 5 6 7 8 9 10 11 12 13 14 15 16 17 18 19 20 21 22 23 24 25 26 27 28 29 30 31 32 33 34 35 36 37 38 39 40 41 42 43 44 45 46 47 48 49 50

000
ASUS42 KMHX 241925
RWRMHX
WEATHER ROUNDUP FOR EASTERN NORTH CAROLINA
NATIONAL WEATHER SERVICE NEWPORT/MOREHEAD CITY NC
300 PM EDT SAT JUN 24 2017

NOTE: "FAIR" INDICATES FEW OR NO CLOUDS BELOW 12,000 FEET
WITH NO SIGNIFICANT WEATHER AND/OR OBSTRUCTIONS TO VISIBILITY

NCZ015>017-031-032-045>047-102-103-242000-
NORTH COAST

CITY           SKY/WX    TMP DP  RH WIND       PRES   REMARKS
EDENTON        SUNNY     91  71  51 CALM      29.92F
ELIZABETH CITY SUNNY     88  71  57 SW10      29.91F
KITTY HAWK     CLEAR     87  69  54 CALM      29.91S
MANTEO         MOSUNNY   88  73  60 N6        29.92F

$$

NCZ045>047-081-094-103-104-242000-
CENTRAL COAST

CITY           SKY/WX    TMP DP  RH WIND       PRES   REMARKS
FRISCO         CLOUDY    83  75  77 SW16G23   29.95F

$$

NCZ095-097-098-100-101-242000-
SOUTHERN COAST

CITY           SKY/WX    TMP DP  RH WIND       PRES   REMARKS
BEAUFORT       SUNNY     86  80  82 SW26G33   29.95F HX 101
CEDAR ISLAND   NOT AVBL
JACKSONVILLE   MOSUNNY   90  75  61 SW10      29.92F HX 100
PINEY ISLAND   MOCLDY   N/A N/A N/A S17G25    29.93F
WILMINGTON     MOSUNNY   91  74  57 S16       29.95S HX 100


$$

NCZ011>013-027>030-043-044-078>080-089-090>093-098-242000-
COASTAL PLAIN

CITY           SKY/WX    TMP DP  RH WIND       PRES   REMARKS
AHOSKIE          N/A     87  70  57 CALM      29.91F
CLINTON        MOSUNNY   90  76  63 SW6       29.92F HX 101
ELIZABETHTOWN  NOT AVBL
GOLDSBORO      MOSUNNY   84  81  89 W6        29.91S
GREENVILLE     MOSUNNY   91  72  52 W6        29.94S
HAVELOCK       MOSUNNY   90  77  65 SW15      29.94F HX 103
KENANSVILLE    CLOUDY    88  77  70 W3        29.92F HX 100
KINSTON        CLOUDY    90  72  55 SW6       29.93F
NEW BERN       LGT RAIN  86  75  69 W8        29.94S
RICHLANDS      PTSUNNY   90  76  63 SW10      29.94S HX 101
ROCKY MOUNT    CLOUDY    90  72  55 VRB5      29.92F
WASHINGTON     MOSUNNY  N/A N/A N/A W8        29.92F
WHITEVILLE     PTSUNNY   92  72  53 S14       29.94F

$$

AMZ130-135-150-152-154-156-158-170-250-252-270-ANZ085-086-088-633-658-670-242000-
MARINE OBSERVATIONS

STATION/POSITION TIME  TEMP    WIND        PRES    WAVE   SWELL
                       AIR SEA DIR/SP/G            HT/PER HT/PER
                 (UTC) (F)     (DEG/KT/KT) (MB)    (FT/S) (FT/S)
CHESAPEAKE LIGHT NOT AVBL
64 E VA BEACH    1850   75 73  220/  2/  4 1013.8    6/ 7   7/ 7
DUCK             1900   87 59  250/ 12/ 13 1012.5
2 E DUCK         NOT AVBL
OREGON INLET     1900   84 81  190/ 16/ 19 1012.9
13E OREGON INLT  1848      74                N/A     4/ 8   3/ 8
HATTERAS CG      1900   82 78  230/ 12/ 19 1013.8
DIAMOND BUOY     1850   81 80  230/ 19/ 23 1014.0    8/ 7
CAPE LOOKOUT     1900   83     210/ 15/ 18 1014.0
BEAUFORT LAB     1900   83 80  210/ 14/ 22 1013.5
30 SE NEW RVR IN 1908   80 80  230/ 19/ 25 1014.9
30 SE NEW RVR IN 1843      80                N/A     7/ 7
27 SE WRIGHTSVLE 1908   79 80  210/ 19/ 25 1014.9
5 SE WRIGHTSVLE  1908   80 79  200/ 14/ 21 1014.8
225 S CAPE HAT   1850   81 81  200/ 14/ 17 1019.6    4/ 8   2/ 8
41 SE CHARLESTON 1900   81 81  210/ 14/ 17 1016.5

$$




USA.gov is the U.S. government's official web portal to all federal, state and local government web resources and services.